Claire City, SD (57224)

12:28 AM CST on February 08, 2016 (GMT -0600)
Wheaton Municipal | | Change Station
CLOSE
Current Station
Airport
Location: Wheaton NDB,
Elevation: 1024 ft
Nearby Weather Stations
Active Advisory: Winter Weather Advisory Active Notice: Local Storm Report

Elev 1024 ft 45.78 °N, 96.54 °W | Updated 12 minutes ago

Snow
Snow
16 °F
Feels Like -2 °F
N
22
Wind Variable Wind from NNW
Gusts 32 mph

Today
High -- | Low -- °F
--% Chance of Precip.
Yesterday
High -- | Low -- °F
Precip. -- in
Pressure 30.02 in
Visibility 4.0 miles
Clouds Mostly Cloudy 1800 ft
Overcast 2900 ft
Windchill -2 °F
Dew Point 12 °F
Humidity 86%
Rainfall 0.00 in
Snow Depth Not available.
7:41 AM 5:43 PM
Waning Crescent, 0% visible
METAR KETH 080616Z AUTO 33019G28KT 4SM -SN BKN018 OVC029 M09/M11 A3002 RMK AO2
Pressure 30.02 in
Visibility 4.0 miles
Clouds Mostly Cloudy 1800 ft
Overcast 2900 ft
Windchill -2 °F
Dew Point 12 °F
Humidity 86%
Rainfall 0.00 in
Snow Depth Not available.
7:41 AM 5:43 PM
Waning Crescent, 0% visible
METAR KETH 080616Z AUTO 33019G28KT 4SM -SN BKN018 OVC029 M09/M11 A3002 RMK AO2

10-Day Weather Forecast

Almanac

Astronomy

Feb. 08, 2016 Rise Set
Actual Time
Civil Twilight
Nautical Twilight
Astronomical Twilight
Moon
Length of Visible Light
Length of Day
Tomorrow will be .
, % of the Moon is Illuminated

Today's Extremes

State Highs State Lows

Community

WunderPhotos

Upload Photos

1,891,393 photos uploaded!

WunderBlog® & News

Nearby

Air Quality

  Air Quality AQ Index Pollutant
Not available.

Snow Depth

Station Depth Elevation

Earthquake Activity

City Distance Mag. Time & Date
Minimum magnitude displayed is 2.5.

Coastal Water Temperatures

Place Temperature

Stations

Nearby Weather Stations

Station Location Temp. Windchill Dew Point Humidity Wind Precip. Elev Updated Type
                   

Watches & Warnings

Winter Weather Advisory
Issued: 10:24 PM CST Feb. 7, 2016 – National Weather Service

... Winter Weather Advisory remains in effect until 6 am CST
Monday...

* expect snow to continue... diminishing around 6 am Monday.

* Additional snow accumulations of up to 1 inch are expected.

* Look for reduced visibilities at times.

* Plan on slippery Road conditions... including during the
morning commute on Monday.

Precautionary/preparedness actions...

A Winter Weather Advisory for snow means periods of snow will
cause travel difficulties. Be prepared for snow covered roads and
limited visibilities... and use caution while driving. The latest
Road conditions for the state you are calling from can be
obtained by calling 5 1 1.

Tmt